Year,Month,Day,Hour,Minute,Value (Times are PST for windgust in km/hr)
2015,08,31,00,00,6.40
2015,08,31,00,01,3.20
2015,08,31,00,02,8.10
2015,08,31,00,03,8.10
2015,08,31,00,04,4.80
2015,08,31,00,05,4.80
2015,08,31,00,06,8.10
2015,08,31,00,07,6.40
2015,08,31,00,08,11.30
2015,08,31,00,09,11.30
2015,08,31,00,10,4.80
2015,08,31,00,11,4.80
2015,08,31,00,12,11.30
2015,08,31,00,13,9.60
2015,08,31,00,14,9.60
2015,08,31,00,15,8.10
2015,08,31,00,16,9.60
2015,08,31,00,17,9.60
2015,08,31,00,18,9.60
2015,08,31,00,19,9.60
2015,08,31,00,20,8.10
2015,08,31,00,21,6.40
2015,08,31,00,22,11.30
2015,08,31,00,23,11.30
2015,08,31,00,24,11.30
2015,08,31,00,25,14.50
2015,08,31,00,26,11.30
2015,08,31,00,27,19.30
2015,08,31,00,28,16.10
2015,08,31,00,29,14.50
2015,08,31,00,30,17.70
2015,08,31,00,31,11.30
2015,08,31,00,32,11.30
2015,08,31,00,33,8.10
2015,08,31,00,34,16.10
2015,08,31,00,35,11.30
2015,08,31,00,36,14.50
2015,08,31,00,37,11.30
2015,08,31,00,38,9.60
2015,08,31,00,39,8.10
2015,08,31,00,40,11.30
2015,08,31,00,41,8.10
2015,08,31,00,42,12.90
2015,08,31,00,43,11.30
2015,08,31,00,44,9.60
2015,08,31,00,45,9.60
2015,08,31,00,46,8.10
2015,08,31,00,47,6.40
2015,08,31,00,48,6.40
2015,08,31,00,49,4.80
2015,08,31,00,50,6.40
2015,08,31,00,51,4.80
2015,08,31,00,52,3.20
2015,08,31,00,53,6.40
2015,08,31,00,54,4.80
2015,08,31,00,55,4.80
2015,08,31,00,56,6.40
2015,08,31,00,57,6.40
2015,08,31,00,58,6.40
2015,08,31,00,59,9.60
2015,08,31,01,00,8.10
2015,08,31,01,01,8.10
2015,08,31,01,02,9.60
2015,08,31,01,03,8.10
2015,08,31,01,04,6.40
2015,08,31,01,05,8.10
2015,08,31,01,06,6.40
2015,08,31,01,07,8.10
2015,08,31,01,08,4.80
2015,08,31,01,09,6.40
2015,08,31,01,10,6.40
2015,08,31,01,11,6.40
2015,08,31,01,12,4.80
2015,08,31,01,13,4.80
2015,08,31,01,14,4.80
2015,08,31,01,15,4.80
2015,08,31,01,16,4.80
2015,08,31,01,17,4.80
2015,08,31,01,18,6.40
2015,08,31,01,19,4.80
2015,08,31,01,20,1.60
2015,08,31,01,21,3.20
2015,08,31,01,22,3.20
2015,08,31,01,23,1.60
2015,08,31,01,24,1.60
2015,08,31,01,26,3.20
2015,08,31,01,27,3.20
2015,08,31,01,28,1.60
2015,08,31,01,29,3.20
2015,08,31,01,30,3.20
2015,08,31,01,31,3.20
2015,08,31,01,32,3.20
2015,08,31,01,33,4.80
2015,08,31,01,34,1.60
2015,08,31,01,35,1.60
2015,08,31,01,36,1.60
2015,08,31,01,37,4.80
2015,08,31,01,38,1.60
2015,08,31,01,39,3.20
2015,08,31,01,40,3.20
2015,08,31,01,41,4.80
2015,08,31,01,42,4.80
2015,08,31,01,43,4.80
2015,08,31,01,44,4.80
2015,08,31,01,45,4.80
2015,08,31,01,46,8.10
2015,08,31,01,47,6.40
2015,08,31,01,48,6.40
2015,08,31,01,49,8.10
2015,08,31,01,50,4.80
2015,08,31,01,51,4.80
2015,08,31,01,53,4.80
2015,08,31,01,54,4.80
2015,08,31,01,56,1.60
2015,08,31,02,02,3.20
2015,08,31,02,12,3.20
2015,08,31,02,13,1.60
2015,08,31,02,15,3.20
2015,08,31,02,16,3.20
2015,08,31,02,20,1.60
2015,08,31,02,21,1.60
2015,08,31,02,24,1.60
2015,08,31,02,25,1.60
2015,08,31,02,27,1.60
2015,08,31,02,32,1.60
2015,08,31,02,56,1.60
2015,08,31,02,57,3.20
2015,08,31,02,58,1.60
2015,08,31,03,00,3.20
2015,08,31,03,01,3.20
2015,08,31,03,02,1.60
2015,08,31,03,03,3.20
2015,08,31,03,04,1.60
2015,08,31,03,05,3.20
2015,08,31,03,06,1.60
2015,08,31,03,08,3.20
2015,08,31,03,09,4.80
2015,08,31,03,10,4.80
2015,08,31,03,11,4.80
2015,08,31,03,12,8.10
2015,08,31,03,13,4.80
2015,08,31,03,14,6.40
2015,08,31,03,15,9.60
2015,08,31,03,16,8.10
2015,08,31,03,17,6.40
2015,08,31,03,18,11.30
2015,08,31,03,19,8.10
2015,08,31,03,20,16.10
2015,08,31,03,21,11.30
2015,08,31,03,22,14.50
2015,08,31,03,23,14.50
2015,08,31,03,24,22.50
2015,08,31,03,25,20.90
2015,08,31,03,26,8.10
2015,08,31,03,27,8.10
2015,08,31,03,28,9.60
2015,08,31,03,29,14.50
2015,08,31,03,30,11.30
2015,08,31,03,31,9.60
2015,08,31,03,32,6.40
2015,08,31,03,33,14.50
2015,08,31,03,34,17.70
2015,08,31,03,35,8.10
2015,08,31,03,36,14.50
2015,08,31,03,37,14.50
2015,08,31,03,38,16.10
2015,08,31,03,39,9.60
2015,08,31,03,40,11.30
2015,08,31,03,41,8.10
2015,08,31,03,42,16.10
2015,08,31,03,43,12.90
2015,08,31,03,44,16.10
2015,08,31,03,45,11.30
2015,08,31,03,46,8.10
2015,08,31,03,47,11.30
2015,08,31,03,48,11.30
2015,08,31,03,49,14.50
2015,08,31,03,50,14.50
2015,08,31,03,51,14.50
2015,08,31,03,52,11.30
2015,08,31,03,53,11.30
2015,08,31,03,54,20.90
2015,08,31,03,55,14.50
2015,08,31,03,56,9.60
2015,08,31,03,57,11.30
2015,08,31,03,58,11.30
2015,08,31,03,59,11.30
2015,08,31,04,00,16.10
2015,08,31,04,01,17.70
2015,08,31,04,02,17.70
2015,08,31,04,03,17.70
2015,08,31,04,04,16.10
2015,08,31,04,05,20.90
2015,08,31,04,06,17.70
2015,08,31,04,07,17.70
2015,08,31,04,08,17.70
2015,08,31,04,09,14.50
2015,08,31,04,10,17.70
2015,08,31,04,11,9.60
2015,08,31,04,12,11.30
2015,08,31,04,13,12.90
2015,08,31,04,14,20.90
2015,08,31,04,15,14.50
2015,08,31,04,16,16.10
2015,08,31,04,17,19.30
2015,08,31,04,18,12.90
2015,08,31,04,19,16.10
2015,08,31,04,20,17.70
2015,08,31,04,21,17.70
2015,08,31,04,22,9.60
2015,08,31,04,23,19.30
2015,08,31,04,24,16.10
2015,08,31,04,25,17.70
2015,08,31,04,26,16.10
2015,08,31,04,27,16.10
2015,08,31,04,28,17.70
2015,08,31,04,29,9.60
2015,08,31,04,30,8.10
2015,08,31,04,31,16.10
2015,08,31,04,32,14.50
2015,08,31,04,33,11.30
2015,08,31,04,34,16.10
2015,08,31,04,35,17.70
2015,08,31,04,36,11.30
2015,08,31,04,37,11.30
2015,08,31,04,38,8.10
2015,08,31,04,39,11.30
2015,08,31,04,40,11.30
2015,08,31,04,41,11.30
2015,08,31,04,42,9.60
2015,08,31,04,43,16.10
2015,08,31,04,44,6.40
2015,08,31,04,45,8.10
2015,08,31,04,46,9.60
2015,08,31,04,47,16.10
2015,08,31,04,48,9.60
2015,08,31,04,49,12.90
2015,08,31,04,50,20.90
2015,08,31,04,51,14.50
2015,08,31,04,52,14.50
2015,08,31,04,53,17.70
2015,08,31,04,54,14.50
2015,08,31,04,55,19.30
2015,08,31,04,56,16.10
2015,08,31,04,57,17.70
2015,08,31,04,58,19.30
2015,08,31,04,59,14.50
2015,08,31,05,00,11.30
2015,08,31,05,01,16.10
2015,08,31,05,02,17.70
2015,08,31,05,03,9.60
2015,08,31,05,04,11.30
2015,08,31,05,05,9.60
2015,08,31,05,06,16.10
2015,08,31,05,07,9.60
2015,08,31,05,08,8.10
2015,08,31,05,09,9.60
2015,08,31,05,10,16.10
2015,08,31,05,11,12.90
2015,08,31,05,12,16.10
2015,08,31,05,13,14.50
2015,08,31,05,14,17.70
2015,08,31,05,15,12.90
2015,08,31,05,16,14.50
2015,08,31,05,17,9.60
2015,08,31,05,18,17.70
2015,08,31,05,19,22.50
2015,08,31,05,20,16.10
2015,08,31,05,21,11.30
2015,08,31,05,22,9.60
2015,08,31,05,23,11.30
2015,08,31,05,24,11.30
2015,08,31,05,25,14.50
2015,08,31,05,26,11.30
2015,08,31,05,27,12.90
2015,08,31,05,28,14.50
2015,08,31,05,29,11.30
2015,08,31,05,30,11.30
2015,08,31,05,31,11.30
2015,08,31,05,32,14.50
2015,08,31,05,33,20.90
2015,08,31,05,34,16.10
2015,08,31,05,35,22.50
2015,08,31,05,36,14.50
2015,08,31,05,37,16.10
2015,08,31,05,38,14.50
2015,08,31,05,39,11.30
2015,08,31,05,40,12.90
2015,08,31,05,41,16.10
2015,08,31,05,42,16.10
2015,08,31,05,43,16.10
2015,08,31,05,44,14.50
2015,08,31,05,45,9.60
2015,08,31,05,46,14.50
2015,08,31,05,47,12.90
2015,08,31,05,48,12.90
2015,08,31,05,49,14.50
2015,08,31,05,50,11.30
2015,08,31,05,51,19.30
2015,08,31,05,52,17.70
2015,08,31,05,53,19.30
2015,08,31,05,54,14.50
2015,08,31,05,55,17.70
2015,08,31,05,56,17.70
2015,08,31,05,57,20.90
2015,08,31,05,58,17.70
2015,08,31,05,59,16.10
2015,08,31,06,00,12.90
2015,08,31,06,01,16.10
2015,08,31,06,02,14.50
2015,08,31,06,03,11.30
2015,08,31,06,04,19.30
2015,08,31,06,05,17.70
2015,08,31,06,06,9.60
2015,08,31,06,07,12.90
2015,08,31,06,08,12.90
2015,08,31,06,09,17.70
2015,08,31,06,10,11.30
2015,08,31,06,11,14.50
2015,08,31,06,12,14.50
2015,08,31,06,13,11.30
2015,08,31,06,14,17.70
2015,08,31,06,15,16.10
2015,08,31,06,16,14.50
2015,08,31,06,17,16.10
2015,08,31,06,18,9.60
2015,08,31,06,19,16.10
2015,08,31,06,20,11.30
2015,08,31,06,21,12.90
2015,08,31,06,22,12.90
2015,08,31,06,23,11.30
2015,08,31,06,24,12.90
2015,08,31,06,25,16.10
2015,08,31,06,26,14.50
2015,08,31,06,27,11.30
2015,08,31,06,28,16.10
2015,08,31,06,29,16.10
2015,08,31,06,30,11.30
2015,08,31,06,31,11.30
2015,08,31,06,32,16.10
2015,08,31,06,33,14.50
2015,08,31,06,34,8.10
2015,08,31,06,35,8.10
2015,08,31,06,36,9.60
2015,08,31,06,37,11.30
2015,08,31,06,38,8.10
2015,08,31,06,39,11.30
2015,08,31,06,40,9.60
2015,08,31,06,41,16.10
2015,08,31,06,42,14.50
2015,08,31,06,43,14.50
2015,08,31,06,44,14.50
2015,08,31,06,45,9.60
2015,08,31,06,46,14.50
2015,08,31,06,47,14.50
2015,08,31,06,48,11.30
2015,08,31,06,49,11.30
2015,08,31,06,50,9.60
2015,08,31,06,51,9.60
2015,08,31,06,52,8.10
2015,08,31,06,53,9.60
2015,08,31,06,54,9.60
2015,08,31,06,55,9.60
2015,08,31,06,56,14.50
2015,08,31,06,57,9.60
2015,08,31,06,58,12.90
2015,08,31,06,59,12.90
2015,08,31,07,00,9.60
2015,08,31,07,01,9.60
2015,08,31,07,02,9.60
2015,08,31,07,03,17.70
2015,08,31,07,04,16.10
2015,08,31,07,05,9.60
2015,08,31,07,06,17.70
2015,08,31,07,07,11.30
2015,08,31,07,08,8.10
2015,08,31,07,09,9.60
2015,08,31,07,10,9.60
2015,08,31,07,11,9.60
2015,08,31,07,12,11.30
2015,08,31,07,13,12.90
2015,08,31,07,14,16.10
2015,08,31,07,15,14.50
2015,08,31,07,16,12.90
2015,08,31,07,17,11.30
2015,08,31,07,18,8.10
2015,08,31,07,19,9.60
2015,08,31,07,20,11.30
2015,08,31,07,21,16.10
2015,08,31,07,22,14.50
2015,08,31,07,23,16.10
2015,08,31,07,24,16.10
2015,08,31,07,25,11.30
2015,08,31,07,26,11.30
2015,08,31,07,27,16.10
2015,08,31,07,28,14.50
2015,08,31,07,29,11.30
2015,08,31,07,30,14.50
2015,08,31,07,31,14.50
2015,08,31,07,32,9.60
2015,08,31,07,33,16.10
2015,08,31,07,34,8.10
2015,08,31,07,35,8.10
2015,08,31,07,36,17.70
2015,08,31,07,37,16.10
2015,08,31,07,38,17.70
2015,08,31,07,39,17.70
2015,08,31,07,40,12.90
2015,08,31,07,41,17.70
2015,08,31,07,42,16.10
2015,08,31,07,43,14.50
2015,08,31,07,44,9.60
2015,08,31,07,45,9.60
2015,08,31,07,46,17.70
2015,08,31,07,47,9.60
2015,08,31,07,48,16.10
2015,08,31,07,49,9.60
2015,08,31,07,50,9.60
2015,08,31,07,51,16.10
2015,08,31,07,52,14.50
2015,08,31,07,53,9.60
2015,08,31,07,54,9.60
2015,08,31,07,55,9.60
2015,08,31,07,56,8.10
2015,08,31,07,57,11.30
2015,08,31,07,58,11.30
2015,08,31,07,59,9.60
2015,08,31,08,00,11.30
2015,08,31,08,01,11.30
2015,08,31,08,02,14.50
2015,08,31,08,03,12.90
2015,08,31,08,04,9.60
2015,08,31,08,05,14.50
2015,08,31,08,06,16.10
2015,08,31,08,07,14.50
2015,08,31,08,08,16.10
2015,08,31,08,09,9.60
2015,08,31,08,10,14.50
2015,08,31,08,11,11.30
2015,08,31,08,12,11.30
2015,08,31,08,13,14.50
2015,08,31,08,14,9.60
2015,08,31,08,15,16.10
2015,08,31,08,16,14.50
2015,08,31,08,17,11.30
2015,08,31,08,18,14.50
2015,08,31,08,19,14.50
2015,08,31,08,20,14.50
2015,08,31,08,21,11.30
2015,08,31,08,22,14.50
2015,08,31,08,23,14.50
2015,08,31,08,24,14.50
2015,08,31,08,25,11.30
2015,08,31,08,26,14.50
2015,08,31,08,27,16.10
2015,08,31,08,28,14.50
2015,08,31,08,29,12.90
2015,08,31,08,30,6.40
2015,08,31,08,31,6.40
2015,08,31,08,32,9.60
2015,08,31,08,33,11.30
2015,08,31,08,34,9.60
2015,08,31,08,35,11.30
2015,08,31,08,36,16.10
2015,08,31,08,37,16.10
2015,08,31,08,38,17.70
2015,08,31,08,39,11.30
2015,08,31,08,40,11.30
2015,08,31,08,41,9.60
2015,08,31,08,42,11.30
2015,08,31,08,43,14.50
2015,08,31,08,44,16.10
2015,08,31,08,45,11.30
2015,08,31,08,46,16.10
2015,08,31,08,47,14.50
2015,08,31,08,48,14.50
2015,08,31,08,49,11.30
2015,08,31,08,50,22.50
2015,08,31,08,51,20.90
2015,08,31,08,52,16.10
2015,08,31,08,53,17.70
2015,08,31,08,54,19.30
2015,08,31,08,55,17.70
2015,08,31,08,56,16.10
2015,08,31,08,57,22.50
2015,08,31,08,58,22.50
2015,08,31,08,59,16.10
2015,08,31,09,00,16.10
2015,08,31,09,01,16.10
2015,08,31,09,02,19.30
2015,08,31,09,03,16.10
2015,08,31,09,04,16.10
2015,08,31,09,05,20.90
2015,08,31,09,06,11.30
2015,08,31,09,07,11.30
2015,08,31,09,08,14.50
2015,08,31,09,09,14.50
2015,08,31,09,10,16.10
2015,08,31,09,11,14.50
2015,08,31,09,12,9.60
2015,08,31,09,13,8.10
2015,08,31,09,14,14.50
2015,08,31,09,15,17.70
2015,08,31,09,16,19.30
2015,08,31,09,17,16.10
2015,08,31,09,18,14.50
2015,08,31,09,19,16.10
2015,08,31,09,20,17.70
2015,08,31,09,21,11.30
2015,08,31,09,22,8.10
2015,08,31,09,23,8.10
2015,08,31,09,24,8.10
2015,08,31,09,25,9.60
2015,08,31,09,26,11.30
2015,08,31,09,27,11.30
2015,08,31,09,28,8.10
2015,08,31,09,29,16.10
2015,08,31,09,30,14.50
2015,08,31,09,31,14.50
2015,08,31,09,32,14.50
2015,08,31,09,33,11.30
2015,08,31,09,34,17.70
2015,08,31,09,35,17.70
2015,08,31,09,36,9.60
2015,08,31,09,37,11.30
2015,08,31,09,38,8.10
2015,08,31,09,39,6.40
2015,08,31,09,40,16.10
2015,08,31,09,41,14.50
2015,08,31,09,42,16.10
2015,08,31,09,43,19.30
2015,08,31,09,44,14.50
2015,08,31,09,45,19.30
2015,08,31,09,46,19.30
2015,08,31,09,47,19.30
2015,08,31,09,48,17.70
2015,08,31,09,49,22.50
2015,08,31,09,50,17.70
2015,08,31,09,51,9.60
2015,08,31,09,52,19.30
2015,08,31,09,53,17.70
2015,08,31,09,54,16.10
2015,08,31,09,55,19.30
2015,08,31,09,56,19.30
2015,08,31,09,57,16.10
2015,08,31,09,58,19.30
2015,08,31,09,59,17.70
2015,08,31,10,00,20.90
2015,08,31,10,01,14.50
2015,08,31,10,02,16.10
2015,08,31,10,03,22.50
2015,08,31,10,04,17.70
2015,08,31,10,05,16.10
2015,08,31,10,06,16.10
2015,08,31,10,07,19.30
2015,08,31,10,08,19.30
2015,08,31,10,09,22.50
2015,08,31,10,10,14.50
2015,08,31,10,11,19.30
2015,08,31,10,12,16.10
2015,08,31,10,13,19.30
2015,08,31,10,14,17.70
2015,08,31,10,15,14.50
2015,08,31,10,16,16.10
2015,08,31,10,17,14.50
2015,08,31,10,18,19.30
2015,08,31,10,19,12.90
2015,08,31,10,20,11.30
2015,08,31,10,21,14.50
2015,08,31,10,22,16.10
2015,08,31,10,23,14.50
2015,08,31,10,24,14.50
2015,08,31,10,25,14.50
2015,08,31,10,26,16.10
2015,08,31,10,27,17.70
2015,08,31,10,28,19.30
2015,08,31,10,29,16.10
2015,08,31,10,30,19.30
2015,08,31,10,31,16.10
2015,08,31,10,32,17.70
2015,08,31,10,33,17.70
2015,08,31,10,34,14.50
2015,08,31,10,35,14.50
2015,08,31,10,36,16.10
2015,08,31,10,37,16.10
2015,08,31,10,38,8.10
2015,08,31,10,39,16.10
2015,08,31,10,40,17.70
2015,08,31,10,41,17.70
2015,08,31,10,42,17.70
2015,08,31,10,43,16.10
2015,08,31,10,44,11.30
2015,08,31,10,45,9.60
2015,08,31,10,46,12.90
2015,08,31,10,47,16.10
2015,08,31,10,48,14.50
2015,08,31,10,49,16.10
2015,08,31,10,50,14.50
2015,08,31,10,51,12.90
2015,08,31,10,52,14.50
2015,08,31,10,53,19.30
2015,08,31,10,54,19.30
2015,08,31,10,55,16.10
2015,08,31,10,56,17.70
2015,08,31,10,57,16.10
2015,08,31,10,58,16.10
2015,08,31,10,59,17.70
2015,08,31,11,00,22.50
2015,08,31,11,01,17.70
2015,08,31,11,02,16.10
2015,08,31,11,03,11.30
2015,08,31,11,04,17.70
2015,08,31,11,05,16.10
2015,08,31,11,06,19.30
2015,08,31,11,07,19.30
2015,08,31,11,08,17.70
2015,08,31,11,09,12.90
2015,08,31,11,10,16.10
2015,08,31,11,11,17.70
2015,08,31,11,12,14.50
2015,08,31,11,13,17.70
2015,08,31,11,14,19.30
2015,08,31,11,15,12.90
2015,08,31,11,16,17.70
2015,08,31,11,17,11.30
2015,08,31,11,18,8.10
2015,08,31,11,19,14.50
2015,08,31,11,20,14.50
2015,08,31,11,21,14.50
2015,08,31,11,22,8.10
2015,08,31,11,23,11.30
2015,08,31,11,24,16.10
2015,08,31,11,25,11.30
2015,08,31,11,26,11.30
2015,08,31,11,27,11.30
2015,08,31,11,28,17.70
2015,08,31,11,29,9.60
2015,08,31,11,30,11.30
2015,08,31,11,31,8.10
2015,08,31,11,32,11.30
2015,08,31,11,33,8.10
2015,08,31,11,34,6.40
2015,08,31,11,35,11.30
2015,08,31,11,36,16.10
2015,08,31,11,37,8.10
2015,08,31,11,38,6.40
2015,08,31,11,39,9.60
2015,08,31,11,40,9.60
2015,08,31,11,41,9.60
2015,08,31,11,42,8.10
2015,08,31,11,43,8.10
2015,08,31,11,44,4.80
2015,08,31,11,45,8.10
2015,08,31,11,46,8.10
2015,08,31,11,47,6.40
2015,08,31,11,48,9.60
2015,08,31,11,49,6.40
2015,08,31,11,50,6.40
2015,08,31,11,51,9.60
2015,08,31,11,52,16.10
2015,08,31,11,53,9.60
2015,08,31,11,54,20.90
2015,08,31,11,55,11.30
2015,08,31,11,56,8.10
2015,08,31,11,57,9.60
2015,08,31,11,58,9.60
2015,08,31,11,59,8.10
2015,08,31,12,00,12.90
2015,08,31,12,01,11.30
2015,08,31,12,02,8.10
2015,08,31,12,03,6.40
2015,08,31,12,04,6.40
2015,08,31,12,05,6.40
2015,08,31,12,06,9.60
2015,08,31,12,07,4.80
2015,08,31,12,08,6.40
2015,08,31,12,09,8.10
2015,08,31,12,10,9.60
2015,08,31,12,11,6.40
2015,08,31,12,12,3.20
2015,08,31,12,13,4.80
2015,08,31,12,14,4.80
2015,08,31,12,15,8.10
2015,08,31,12,16,4.80
2015,08,31,12,17,9.60
2015,08,31,12,18,9.60
2015,08,31,12,19,11.30
2015,08,31,12,20,9.60
2015,08,31,12,21,11.30
2015,08,31,12,22,9.60
2015,08,31,12,23,6.40
2015,08,31,12,24,8.10
2015,08,31,12,25,4.80
2015,08,31,12,26,4.80
2015,08,31,12,27,11.30
2015,08,31,12,28,8.10
2015,08,31,12,29,11.30
2015,08,31,12,30,9.60
2015,08,31,12,31,14.50
2015,08,31,12,32,12.90
2015,08,31,12,33,9.60
2015,08,31,12,34,8.10
2015,08,31,12,35,6.40
2015,08,31,12,36,6.40
2015,08,31,12,37,8.10
2015,08,31,12,38,9.60
2015,08,31,12,39,11.30
2015,08,31,12,40,8.10
2015,08,31,12,41,9.60
2015,08,31,12,42,12.90
2015,08,31,12,43,14.50
2015,08,31,12,44,6.40
2015,08,31,12,45,9.60
2015,08,31,12,46,8.10
2015,08,31,12,47,9.60
2015,08,31,12,48,9.60
2015,08,31,12,49,11.30
2015,08,31,12,50,11.30
2015,08,31,12,51,9.60
2015,08,31,12,52,8.10
2015,08,31,12,53,8.10
2015,08,31,12,54,6.40
2015,08,31,12,55,9.60
2015,08,31,12,56,14.50
2015,08,31,12,57,11.30
2015,08,31,12,58,11.30
2015,08,31,12,59,9.60
2015,08,31,13,00,14.50
2015,08,31,13,01,11.30
2015,08,31,13,02,11.30
2015,08,31,13,03,11.30
2015,08,31,13,04,11.30
2015,08,31,13,05,11.30
2015,08,31,13,06,6.40
2015,08,31,13,07,6.40
2015,08,31,13,08,25.70
2015,08,31,13,09,17.70
2015,08,31,13,10,11.30
2015,08,31,13,11,29.00
2015,08,31,13,12,22.50
2015,08,31,13,13,16.10
2015,08,31,13,14,17.70
2015,08,31,13,15,24.20
2015,08,31,13,16,25.70
2015,08,31,13,17,19.30
2015,08,31,13,18,25.70
2015,08,31,13,19,22.50
2015,08,31,13,20,19.30
2015,08,31,13,21,19.30
2015,08,31,13,22,35.40
2015,08,31,13,23,22.50
2015,08,31,13,24,25.70
2015,08,31,13,25,19.30
2015,08,31,13,26,27.40
2015,08,31,13,27,30.60
2015,08,31,13,28,25.70
2015,08,31,13,29,30.60
2015,08,31,13,30,20.90
2015,08,31,13,31,19.30
2015,08,31,13,32,24.20
2015,08,31,13,33,19.30
2015,08,31,13,34,19.30
2015,08,31,13,35,22.50
2015,08,31,13,36,16.10
2015,08,31,13,37,22.50
2015,08,31,13,38,16.10
2015,08,31,13,39,16.10
2015,08,31,13,40,19.30
2015,08,31,13,41,16.10
2015,08,31,13,42,19.30
2015,08,31,13,43,17.70
2015,08,31,13,44,19.30
2015,08,31,13,45,17.70
2015,08,31,13,46,17.70
2015,08,31,13,47,9.60
2015,08,31,13,48,16.10
2015,08,31,13,49,19.30
2015,08,31,13,50,19.30
2015,08,31,13,51,20.90
2015,08,31,13,52,19.30
2015,08,31,13,53,24.20
2015,08,31,13,54,19.30
2015,08,31,13,55,19.30
2015,08,31,13,56,16.10
2015,08,31,13,57,19.30
2015,08,31,13,58,16.10
2015,08,31,13,59,27.40
2015,08,31,14,00,20.90
2015,08,31,14,01,16.10
2015,08,31,14,02,9.60
2015,08,31,14,03,17.70
2015,08,31,14,04,16.10
2015,08,31,14,05,11.30
2015,08,31,14,06,16.10
2015,08,31,14,07,16.10
2015,08,31,14,08,14.50
2015,08,31,14,09,22.50
2015,08,31,14,10,17.70
2015,08,31,14,11,27.40
2015,08,31,14,12,22.50
2015,08,31,14,13,19.30
2015,08,31,14,14,33.80
2015,08,31,14,15,16.10
2015,08,31,14,16,16.10
2015,08,31,14,17,19.30
2015,08,31,14,18,20.90
2015,08,31,14,19,19.30
2015,08,31,14,20,20.90
2015,08,31,14,21,17.70
2015,08,31,14,22,22.50
2015,08,31,14,23,24.20
2015,08,31,14,24,19.30
2015,08,31,14,25,35.40
2015,08,31,14,26,33.80
2015,08,31,14,27,29.00
2015,08,31,14,28,20.90
2015,08,31,14,29,25.70
2015,08,31,14,30,27.40
2015,08,31,14,31,43.50
2015,08,31,14,32,33.80
2015,08,31,14,33,17.70
2015,08,31,14,34,25.70
2015,08,31,14,35,29.00
2015,08,31,14,36,29.00
2015,08,31,14,37,32.20
2015,08,31,14,38,27.40
2015,08,31,14,39,16.10
2015,08,31,14,40,25.70
2015,08,31,14,41,22.50
2015,08,31,14,42,35.40
2015,08,31,14,43,25.70
2015,08,31,14,44,20.90
2015,08,31,14,45,27.40
2015,08,31,14,46,24.20
2015,08,31,14,47,20.90
2015,08,31,14,48,19.30
2015,08,31,14,49,25.70
2015,08,31,14,50,17.70
2015,08,31,14,51,20.90
2015,08,31,14,52,22.50
2015,08,31,14,53,22.50
2015,08,31,14,54,27.40
2015,08,31,14,55,22.50
2015,08,31,14,56,22.50
2015,08,31,14,57,25.70
2015,08,31,14,58,25.70
2015,08,31,14,59,20.90
2015,08,31,15,00,25.70
2015,08,31,15,01,27.40
2015,08,31,15,02,24.20
2015,08,31,15,03,22.50
2015,08,31,15,04,25.70
2015,08,31,15,05,22.50
2015,08,31,15,06,29.00
2015,08,31,15,07,24.20
2015,08,31,15,08,19.30
2015,08,31,15,09,17.70
2015,08,31,15,10,27.40
2015,08,31,15,11,30.60
2015,08,31,15,12,27.40
2015,08,31,15,13,19.30
2015,08,31,15,14,16.10
2015,08,31,15,15,22.50
2015,08,31,15,16,19.30
2015,08,31,15,17,22.50
2015,08,31,15,18,19.30
2015,08,31,15,19,29.00
2015,08,31,15,20,29.00
2015,08,31,15,21,27.40
2015,08,31,15,22,22.50
2015,08,31,15,23,25.70
2015,08,31,15,24,17.70
2015,08,31,15,25,32.20
2015,08,31,15,26,27.40
2015,08,31,15,27,22.50
2015,08,31,15,28,20.90
2015,08,31,15,29,14.50
2015,08,31,15,30,22.50
2015,08,31,15,31,24.20
2015,08,31,15,32,22.50
2015,08,31,15,33,32.20
2015,08,31,15,34,27.40
2015,08,31,15,35,27.40
2015,08,31,15,36,25.70
2015,08,31,15,37,25.70
2015,08,31,15,38,27.40
2015,08,31,15,39,35.40
2015,08,31,15,40,30.60
2015,08,31,15,41,22.50
2015,08,31,15,42,32.20
2015,08,31,15,43,29.00
2015,08,31,15,44,32.20
2015,08,31,15,45,41.80
2015,08,31,15,46,30.60
2015,08,31,15,47,30.60
2015,08,31,15,48,22.50
2015,08,31,15,49,17.70
2015,08,31,15,50,24.20
2015,08,31,15,51,40.20
2015,08,31,15,52,41.80
2015,08,31,15,53,25.70
2015,08,31,15,54,27.40
2015,08,31,15,55,25.70
2015,08,31,15,56,19.30
2015,08,31,15,57,22.50
2015,08,31,15,58,20.90
2015,08,31,15,59,19.30
2015,08,31,16,00,24.20
2015,08,31,16,01,30.60
2015,08,31,16,02,29.00
2015,08,31,16,03,30.60
2015,08,31,16,04,25.70
2015,08,31,16,05,25.70
2015,08,31,16,06,24.20
2015,08,31,16,07,32.20
2015,08,31,16,08,27.40
2015,08,31,16,09,16.10
2015,08,31,16,10,16.10
2015,08,31,16,11,22.50
2015,08,31,16,12,17.70
2015,08,31,16,13,19.30
2015,08,31,16,14,19.30
2015,08,31,16,15,22.50
2015,08,31,16,16,24.20
2015,08,31,16,17,25.70
2015,08,31,16,18,19.30
2015,08,31,16,19,20.90
2015,08,31,16,20,19.30
2015,08,31,16,21,14.50
2015,08,31,16,22,9.60
2015,08,31,16,23,16.10
2015,08,31,16,24,17.70
2015,08,31,16,25,16.10
2015,08,31,16,26,20.90
2015,08,31,16,27,12.90
2015,08,31,16,28,16.10
2015,08,31,16,29,11.30
2015,08,31,16,30,14.50
2015,08,31,16,31,9.60
2015,08,31,16,32,16.10
2015,08,31,16,33,17.70
2015,08,31,16,34,14.50
2015,08,31,16,35,16.10
2015,08,31,16,36,16.10
2015,08,31,16,37,11.30
2015,08,31,16,38,17.70
2015,08,31,16,39,22.50
2015,08,31,16,40,19.30
2015,08,31,16,41,17.70
2015,08,31,16,42,29.00
2015,08,31,16,43,29.00
2015,08,31,16,44,22.50
2015,08,31,16,45,22.50
2015,08,31,16,46,24.20
2015,08,31,16,47,25.70
2015,08,31,16,48,19.30
2015,08,31,16,49,24.20
2015,08,31,16,50,19.30
2015,08,31,16,51,17.70
2015,08,31,16,52,22.50
2015,08,31,16,53,20.90
2015,08,31,16,54,12.90
2015,08,31,16,55,20.90
2015,08,31,16,56,20.90
2015,08,31,16,57,19.30
2015,08,31,16,58,22.50
2015,08,31,16,59,27.40
2015,08,31,17,00,19.30
2015,08,31,17,01,27.40
2015,08,31,17,02,29.00
2015,08,31,17,03,29.00
2015,08,31,17,04,33.80
2015,08,31,17,05,16.10
2015,08,31,17,06,16.10
2015,08,31,17,07,19.30
2015,08,31,17,08,25.70
2015,08,31,17,09,25.70
2015,08,31,17,10,29.00
2015,08,31,17,11,25.70
2015,08,31,17,12,30.60
2015,08,31,17,13,27.40
2015,08,31,17,14,25.70
2015,08,31,17,15,22.50
2015,08,31,17,16,16.10
2015,08,31,17,17,22.50
2015,08,31,17,18,27.40
2015,08,31,17,19,22.50
2015,08,31,17,20,19.30
2015,08,31,17,21,17.70
2015,08,31,17,22,22.50
2015,08,31,17,23,19.30
2015,08,31,17,24,24.20
2015,08,31,17,25,25.70
2015,08,31,17,26,19.30
2015,08,31,17,27,19.30
2015,08,31,17,28,24.20
2015,08,31,17,29,24.20
2015,08,31,17,30,22.50
2015,08,31,17,31,27.40
2015,08,31,17,32,27.40
2015,08,31,17,33,22.50
2015,08,31,17,34,35.40
2015,08,31,17,35,37.00
2015,08,31,17,36,33.80
2015,08,31,17,37,38.60
2015,08,31,17,38,35.40
2015,08,31,17,39,29.00
2015,08,31,17,40,22.50
2015,08,31,17,41,33.80
2015,08,31,17,42,38.60
2015,08,31,17,43,32.20
2015,08,31,17,44,30.60
2015,08,31,17,45,38.60
2015,08,31,17,46,27.40
2015,08,31,17,47,20.90
2015,08,31,17,48,30.60
2015,08,31,17,49,24.20
2015,08,31,17,50,29.00
2015,08,31,17,51,24.20
2015,08,31,17,52,24.20
2015,08,31,17,53,22.50
2015,08,31,17,54,24.20
2015,08,31,17,55,22.50
2015,08,31,17,56,30.60
2015,08,31,17,57,20.90
2015,08,31,17,58,22.50
2015,08,31,17,59,17.70
2015,08,31,18,00,22.50
2015,08,31,18,01,25.70
2015,08,31,18,02,16.10
2015,08,31,18,03,12.90
2015,08,31,18,04,22.50
2015,08,31,18,05,19.30
2015,08,31,18,06,24.20
2015,08,31,18,07,17.70
2015,08,31,18,08,17.70
2015,08,31,18,09,22.50
2015,08,31,18,10,19.30
2015,08,31,18,11,19.30
2015,08,31,18,12,9.60
2015,08,31,18,13,19.30
2015,08,31,18,14,24.20
2015,08,31,18,15,22.50
2015,08,31,18,16,14.50
2015,08,31,18,17,19.30
2015,08,31,18,18,20.90
2015,08,31,18,19,25.70
2015,08,31,18,20,20.90
2015,08,31,18,21,19.30
2015,08,31,18,22,16.10
2015,08,31,18,23,17.70
2015,08,31,18,24,25.70